Tracking 18980 objects as of 22-Feb-2018
HD Live streaming from Space Station
objects crossing your sky now

FENGYUN 1C DEB

Track FENGYUN 1C DEB now!
10-day predictions


NORAD ID: 30984
Int'l Code: 1999-025BCA
Perigee: 665.0 km
Apogee: 882.9 km
Inclination: 98.6 °
Period: 100.2 minutes
Semi major axis: 7144 km
RCS: 0.0104 m2 (small)
Launch date: May 10, 1999
Source: People's Republic of China (PRC)
Launch site: Taiyaun Space Center, China (TSC)

Note: This is SATELLITE DEBRIS
aabbcc
Your satellite tracking list
Your tracking list is empty




NASA's NSSDC Master Catalog

Two Line Element Set (TLE):
1 30984U 99025BCA 18052.96898243 +.00000311 +00000-0 +10592-3 0  9999
2 30984 098.5885 093.5609 0152461 296.7877 181.6080 14.37496189541147
Source of the keplerian elements: AFSPC